Location: San Martino di Castrozza
(46.2667°N, 11.8000°E)
Time: 02:57:02
(UTC+00:00)

CREW DRAGON DEMO-1 DEB - Pass Details

Date: 23 April 2021
Orbit: 302 x 306 km, 51.6° (Epoch: 15 May)

Event Time Altitude Azimuth Distance (km) Brightness Sun altitude
Exits shadow 03:05:42 - 301° (WNW) 1,534 5.6 -11.2°
Reaches altitude 10° 03:06:37 10° 308° (NW) 1,185 5.1 -11.0°
Maximum altitude 03:08:57 28° 11° (N) 620 4.4 -10.7°
Drops below altitude 10° 03:11:18 10° 74° (ENE) 1,189 6.8 -10.3°
Sets 03:13:24 0° 86° (E) 2,018 7.8 -10.0°
